Location: Nied?wied?
(53.3665°N, 14.8184°E)
Time: 23:32:42
(UTC+00:00)

MetOp-A - Pass Details

Date: 03 March 2021
Orbit: 819 x 821 km, 98.5° (Epoch: 12 April)

Event Time Altitude Azimuth Distance (km) Brightness Sun altitude
Rises 17:46:48 0° 144° (SE) 3,346 6.9 -10.3°
Reaches altitude 10° 17:49:12 10° 139° (SE) 2,418 6.2 -10.7°
Maximum altitude 17:54:20 50° 66° (ENE) 1,050 4.4 -11.5°
Drops below altitude 10° 17:59:30 10° 353° (N) 2,433 6.8 -12.2°
Sets 18:01:55 0° 348° (NNW) 3,370 7.6 -12.6°
